Location: Palomar Mountain Lodge
(33.3110°N, 116.8495°W)
Time: 05:38:15
(UTC-07:00)

Tiangong - Pass Details

Date: 14 February 2026
Orbit: 381 x 391 km, 41.5° (Epoch: 8 March)

Event Time Altitude Azimuth Distance (km) Brightness Sun altitude
Rises 19:06:40 0° 294° (WNW) 2,245 2.9 -20.4°
Reaches altitude 10° 19:09:11 10° 315° (NW) 1,391 1.2 -21.0°
Enters shadow 19:10:50 17° 346° (NNW) 1,053 0.2 -21.3°
